Weather History for Greenwood, SC

Change the Weather History Date:

Thursday, March 14, 2013

  Actual Average (KAND) Record (KAND)
Temperature  
Mean Temperature 40 °F -  
Max Temperature 55 °F 66 °F 83 °F (1967)
Min Temperature 26 °F 42 °F 22 °F (1993)
Degree Days  
Heating Degree Days 24    
Moisture  
Dew Point 19 °F    
Average Humidity 45    
Maximum Humidity 78    
Minimum Humidity 21    
Precipitation  
Precipitation 0.00 in - - ()
Sea Level Pressure  
Sea Level Pressure 30.25 in    
Wind  
Wind Speed 3 mph (WNW)    
Max Wind Speed 9 mph    
Max Gust Speed 16 mph    
Visibility 10 miles    
Events      
Averages and records for this station are not official NWS values.
T = Trace of Precipitation, MM = Missing Value Source: NWS Daily Summary

Daily Weather History Graph

Daily Weather History Graph

Search for Another Location

Airport:

Trip Planner

Search our weather history database for the weather conditions in past years. The results will help you decide how hot, cold, wet, or windy it might be!

Date:

Astronomy

Mar. 14, 2013 Rise Set
Actual Time 7:40 AM EDT 7:35 PM EDT
Civil Twilight 7:15 AM EDT 8:00 PM EDT
Nautical Twilight 6:46 AM EDT 8:29 PM EDT
Astronomical Twilight 6:16 AM EDT 8:59 PM EDT
Moon 9:02 AM EDT (3/14) 10:40 PM EDT (3/14)
Length of Visible Light 12h 45m
Length of Day
11h 55m
Waxing Crescent, 9% of the Moon is Illuminated
Mar 14
Waxing Crescent
Mar 19
First Quarter
Mar 27
Full
Apr 3
Last Quarter
Apr 10
New

Hourly Weather History & Observations

Time (EDT) Temp. Windchill Dew Point Humidity Pressure Visibility Wind Dir Wind Speed Gust Speed Precip Events Conditions
12:56 AM 37.9 °F - 19.9 °F 48% 30.20 in 10.0 mi Calm Calm - N/A   Clear
1:56 AM 35.1 °F 32.2 °F 21.0 °F 57% 30.21 in 10.0 mi West 3.5 mph - N/A   Clear
2:56 AM 33.1 °F - 21.0 °F 61% 30.23 in 10.0 mi Calm Calm - N/A   Clear
3:56 AM 28.9 °F - 21.0 °F 72% 30.23 in 10.0 mi Calm Calm - N/A   Clear
4:56 AM 28.9 °F 25.2 °F 21.0 °F 72% 30.24 in 10.0 mi NNW 3.5 mph - N/A   Clear
5:56 AM 30.0 °F 26.5 °F 19.9 °F 66% 30.26 in 10.0 mi NNW 3.5 mph - N/A   Clear
6:56 AM 27.0 °F 23.0 °F 21.0 °F 78% 30.29 in 10.0 mi NW 3.5 mph - N/A   Clear
7:56 AM 26.1 °F - 19.9 °F 78% 30.32 in 10.0 mi Calm Calm - N/A   Clear
8:56 AM 34.0 °F 31.0 °F 19.0 °F 54% 30.33 in 10.0 mi NNW 3.5 mph - N/A   Clear
10:56 AM 42.1 °F 38.4 °F 17.1 °F 37% 30.34 in 10.0 mi Variable 5.8 mph - N/A   Clear
11:56 AM 44.1 °F 42.5 °F 17.1 °F 34% 30.34 in 10.0 mi Variable 3.5 mph - N/A   Clear
12:56 PM 48.9 °F - 15.1 °F 26% 30.32 in 10.0 mi WNW 9.2 mph - N/A   Clear
1:56 PM 50.0 °F - 15.1 °F 25% 30.29 in 10.0 mi Variable 3.5 mph 16.1 mph N/A   Clear
2:56 PM 53.1 °F - 14.0 °F 21% 30.26 in 10.0 mi Calm Calm - N/A   Clear
3:56 PM 54.0 °F - 14.0 °F 21% 30.22 in 10.0 mi Calm Calm - N/A   Clear
4:56 PM 55.0 °F - 16.0 °F 22% 30.22 in 10.0 mi WNW 9.2 mph - N/A   Clear
5:56 PM 53.1 °F - 19.9 °F 27% 30.21 in 10.0 mi WSW 9.2 mph - N/A   Clear
6:56 PM 53.1 °F - 19.0 °F 26% 30.20 in 10.0 mi WSW 4.6 mph - N/A   Clear
7:56 PM 48.9 °F - 19.9 °F 32% 30.21 in 10.0 mi SW 3.5 mph - N/A   Clear
8:56 PM 45.0 °F - 23.0 °F 42% 30.19 in 10.0 mi Calm Calm - N/A   Clear
9:56 PM 41.0 °F - 23.0 °F 49% 30.20 in 10.0 mi Calm Calm - N/A   Clear
10:56 PM 45.0 °F 40.1 °F 21.9 °F 40% 30.22 in 10.0 mi WSW 9.2 mph - N/A   Clear
11:56 PM 45.0 °F 41.8 °F 19.0 °F 36% 30.21 in 10.0 mi West 5.8 mph - 0.00 in   Clear